1998-067PC (43554 NORAD) Tracking and Keplerian Element Data

This shows tracking and keplerian element data for the satellite.

Feedback or suggestion? Click here.




ElementValue
Catalog43554
Name1998-067PC
Epoch Orbit12608
Epoch Day270.57593485
Epoch Year2020
RAAN101.1275
Inclination51.616
Eccentricity0.0010186
Argument of Perigee278.2959
Mean Anonmoly81.6908
Mean Motion16.30403101
Decay Rate0.04847927
L11 43554U 98067PC 20270.57593485 .04847927 12138-4 97747-3 0 9995
L22 43554 51.6160 101.1275 0010186 278.2959 81.6908 16.30403101126085



Live tracking and technical data element details for 1998-067PC (NORAD 43554). 1998-067PC can be tracked NOW for your location showing map with azimuth and elevation plus other details from your city location.







IsCatalogInMostPopularTable: catalog: 43554, numindb: 628
Update: records affected: 1



GetName: 43554 1998-067PC

Hit Count: updated at: Mon, 17 Jun 2024 22:50:41 GMT